sat.trackr.live / text

‹ back to catalog

ONEWEB-0457

NORAD 51647 · 2022-012AB

PAYLOAD ACTIVE UNKNOWN

§ Identity

Operator
Country
UK
Launch date
2022-02-10
Launch site
FRGUI
Launch vehicle
Mass (kg)
RCS (m²)

Purposes: comms

External: N2YO · Heavens-Above · Gunter

§ Orbital elements

Epoch: 2026-05-25T04:24:23.211072Z

Period
109.89 min
Inclination
87.8849°
Eccentricity
0.0001856
Mean motion
13.10370330 rev/d
Perigee alt
1,220.3 km
Apogee alt
1,223.1 km
Semi-major
7,599.9 km
B*
-1.5896e-3
RAAN
40.8511°
Arg perigee
93.1380°
Mean anomaly
266.9959°
Rev number
20,633

§ Raw data

ONEWEB-04571 51647U 22012AB  26145.18360198 -.00000542  00000+0 -15896-2 0  99972 51647  87.8849  40.8511 0001856  93.1380 266.9959 13.10370330206333

JSON: /api/v1/satellites/51647 · /tle

For live sub-satellite position, see the globe view (requires WebGL).

§ Visibility from observer

Set your observer location to see the next 7 days of passes ≥ 10°. The values pass through the URL so the page stays shareable.

No JS? Fill the form by hand. The geolocation button needs JavaScript.